QFA125 YSSY-YMML

Flight info

Callsign QFA125
Flight time 1h 5m
Altitude 40000
Route WOL H65 LEECE Q29 ML
Aircraft A359/H-SDE2E3GHIJ3J4J5LM1ORWXY/LB1D1

Departure

Time 2026-04-21 09:37
Airport Sydney Kingsford Smith International Airport (YSSY)

Arrival

Time 2026-04-21 10:42
Airport Melbourne Airport (YMML)
Time Latitude Longitude Altitude Speed Heading
2026-04-21 09:07 -33.93792 151.16965 27 ft 0 kts 255°
2026-04-21 09:29 -33.93789 151.16982 27 ft 4 kts 256°
2026-04-21 09:30 -33.93783 151.17014 27 ft 4 kts 264°
2026-04-21 09:30 -33.93784 151.17044 27 ft 4 kts 300°
2026-04-21 09:30 -33.93793 151.17056 27 ft 1 kts 350°
2026-04-21 09:32 -33.93787 151.17055 27 ft 4 kts 351°
2026-04-21 09:33 -33.93746 151.17055 27 ft 8 kts 13°
2026-04-21 09:33 -33.93709 151.17109 27 ft 10 kts 58°
2026-04-21 09:33 -33.93649 151.17137 27 ft 11 kts 354°
2026-04-21 09:33 -33.93561 151.17117 27 ft 15 kts 348°
2026-04-21 09:34 -33.93445 151.17088 27 ft 19 kts 348°
2026-04-21 09:34 -33.93336 151.17048 27 ft 8 kts 332°
2026-04-21 09:34 -33.93283 151.16993 27 ft 12 kts 323°
2026-04-21 09:34 -33.93193 151.16946 26 ft 16 kts 346°
2026-04-21 09:35 -33.93091 151.16919 27 ft 10 kts 347°
2026-04-21 09:35 -33.93011 151.16915 27 ft 13 kts 25°
2026-04-21 09:35 -33.92970 151.17021 29 ft 16 kts 76°
2026-04-21 09:35 -33.92981 151.17157 31 ft 15 kts 133°
2026-04-21 09:36 -33.93031 151.17182 29 ft 0 kts 166°
2026-04-21 09:36 -33.93044 151.17186 28 ft 12 kts 166°
2026-04-21 09:36 -33.93422 151.17285 24 ft 98 kts 168°
2026-04-21 09:36 -33.94325 151.17519 103 ft 159 kts 168°
2026-04-21 09:37 -33.95365 151.17801 1166 ft 146 kts 166°
2026-04-21 09:37 -33.96406 151.17889 1757 ft 160 kts 185°
2026-04-21 09:37 -33.97581 151.17757 2060 ft 184 kts 183°
2026-04-21 09:37 -33.98946 151.17652 2348 ft 210 kts 182°
2026-04-21 09:38 -34.00491 151.17586 2750 ft 232 kts 181°
2026-04-21 09:38 -34.02134 151.17532 3456 ft 237 kts 181°
2026-04-21 09:38 -34.03767 151.17808 4265 ft 240 kts 164°
2026-04-21 09:38 -34.05362 151.18436 5081 ft 242 kts 164°
2026-04-21 09:39 -34.06999 151.18984 5829 ft 246 kts 166°
2026-04-21 09:39 -34.08674 151.19525 6541 ft 251 kts 165°
2026-04-21 09:39 -34.10376 151.20081 7269 ft 255 kts 165°
2026-04-21 09:39 -34.12104 151.20655 7959 ft 259 kts 164°
2026-04-21 09:40 -34.13852 151.21234 8705 ft 261 kts 164°
2026-04-21 09:40 -34.15016 151.21619 9228 ft 262 kts 164°
2026-04-21 09:40 -34.16783 151.22192 9961 ft 266 kts 165°
2026-04-21 09:40 -34.18645 151.22441 10527 ft 276 kts 180°
2026-04-21 09:41 -34.21156 151.21505 11036 ft 299 kts 210°
2026-04-21 09:41 -34.22253 151.20415 11418 ft 306 kts 222°
2026-04-21 09:41 -34.24146 151.17821 12297 ft 311 kts 226°
2026-04-21 09:41 -34.25089 151.16467 12743 ft 312 kts 226°
2026-04-21 09:42 -34.26963 151.13796 13607 ft 316 kts 226°
2026-04-21 09:42 -34.27907 151.12453 14063 ft 317 kts 226°
2026-04-21 09:42 -34.29346 151.10410 14634 ft 320 kts 226°
2026-04-21 09:42 -34.30796 151.08356 15238 ft 322 kts 226°
2026-04-21 09:43 -34.32258 151.06290 15804 ft 325 kts 226°
2026-04-21 09:43 -34.33732 151.04207 16404 ft 327 kts 226°
2026-04-21 09:43 -34.35215 151.02110 16961 ft 330 kts 227°
2026-04-21 09:43 -34.36723 151.00002 17507 ft 333 kts 225°
2026-04-21 09:44 -34.38379 150.98020 17986 ft 338 kts 220°
2026-04-21 09:44 -34.40152 150.96085 18232 ft 349 kts 219°
2026-04-21 09:44 -34.41997 150.94096 18481 ft 360 kts 219°
2026-04-21 09:44 -34.43880 150.92061 18844 ft 365 kts 219°
2026-04-21 09:45 -34.45783 150.90000 19284 ft 367 kts 220°
2026-04-21 09:45 -34.47664 150.87957 19719 ft 369 kts 220°
2026-04-21 09:45 -34.49578 150.85878 20170 ft 371 kts 220°
2026-04-21 09:45 -34.51501 150.83786 20593 ft 373 kts 220°
2026-04-21 09:46 -34.53437 150.81678 21025 ft 375 kts 220°
2026-04-21 09:46 -34.55341 150.79508 21469 ft 377 kts 224°
2026-04-21 09:46 -34.57070 150.77079 21891 ft 381 kts 229°
2026-04-21 09:46 -34.58696 150.74527 22313 ft 383 kts 231°
2026-04-21 09:47 -34.60276 150.71907 22717 ft 385 kts 231°
2026-04-21 09:47 -34.61840 150.69253 23132 ft 387 kts 232°
2026-04-21 09:47 -34.63412 150.66578 23529 ft 389 kts 232°
2026-04-21 09:47 -34.64992 150.63903 23947 ft 391 kts 231°
2026-04-21 09:48 -34.66590 150.61217 24320 ft 393 kts 231°
2026-04-21 09:48 -34.68202 150.58523 24679 ft 394 kts 231°
2026-04-21 09:48 -34.69801 150.55857 25053 ft 396 kts 231°
2026-04-21 09:48 -34.71427 150.53150 25417 ft 397 kts 231°
2026-04-21 09:49 -34.73060 150.50431 25803 ft 399 kts 231°
2026-04-21 09:49 -34.74702 150.47694 26198 ft 401 kts 231°
2026-04-21 09:49 -34.76347 150.44949 26546 ft 403 kts 231°
2026-04-21 09:49 -34.78007 150.42179 26928 ft 406 kts 231°
2026-04-21 09:50 -34.79668 150.39401 27360 ft 407 kts 231°
2026-04-21 09:50 -34.80774 150.37550 27668 ft 409 kts 231°
2026-04-21 09:50 -34.84697 150.30976 28743 ft 413 kts 231°
2026-04-21 09:51 -34.86389 150.28138 29225 ft 415 kts 231°
2026-04-21 09:51 -34.88095 150.25275 29697 ft 418 kts 231°
2026-04-21 09:51 -34.89806 150.22402 30166 ft 420 kts 231°
2026-04-21 09:51 -34.91507 150.19541 30620 ft 423 kts 231°
2026-04-21 09:52 -34.93245 150.16615 31010 ft 426 kts 231°
2026-04-21 09:52 -34.94993 150.13671 31402 ft 429 kts 231°
2026-04-21 09:52 -34.96750 150.10711 31806 ft 432 kts 231°
2026-04-21 09:52 -34.98517 150.07728 32206 ft 435 kts 231°
2026-04-21 09:53 -35.00272 150.04764 32599 ft 438 kts 231°
2026-04-21 09:53 -35.02057 150.01747 32991 ft 440 kts 232°
2026-04-21 09:53 -35.03858 149.98700 33357 ft 442 kts 232°
2026-04-21 09:53 -35.05662 149.95646 33732 ft 445 kts 232°
2026-04-21 09:54 -35.07479 149.92573 34096 ft 447 kts 232°
2026-04-21 09:54 -35.09304 149.89477 34452 ft 450 kts 232°
2026-04-21 09:54 -35.11132 149.86372 34749 ft 451 kts 232°
2026-04-21 09:54 -35.12969 149.83250 35052 ft 453 kts 232°
2026-04-21 09:55 -35.14815 149.80108 35352 ft 455 kts 232°
2026-04-21 09:55 -35.16655 149.76973 35802 ft 453 kts 232°
2026-04-21 09:55 -35.18485 149.73852 36282 ft 451 kts 232°
2026-04-21 09:55 -35.20287 149.70779 36739 ft 449 kts 232°
2026-04-21 09:56 -35.22106 149.67672 37177 ft 448 kts 232°
2026-04-21 09:56 -35.23915 149.64583 37611 ft 447 kts 232°
2026-04-21 09:56 -35.25720 149.61497 38033 ft 445 kts 232°
2026-04-21 09:56 -35.27523 149.58412 38453 ft 444 kts 232°
2026-04-21 09:57 -35.29318 149.55337 38854 ft 443 kts 233°
2026-04-21 09:57 -35.31103 149.52277 39224 ft 441 kts 233°
2026-04-21 09:57 -35.32886 149.49218 39522 ft 441 kts 233°
2026-04-21 09:57 -35.34668 149.46159 39784 ft 441 kts 233°
2026-04-21 09:58 -35.36449 149.43098 40058 ft 441 kts 233°
2026-04-21 09:58 -35.38230 149.40035 40314 ft 441 kts 233°
2026-04-21 09:58 -35.41793 149.33900 40425 ft 441 kts 233°
2026-04-21 09:59 -35.45349 149.27763 40405 ft 442 kts 233°
2026-04-21 09:59 -35.48887 149.21647 40405 ft 442 kts 233°
2026-04-21 10:00 -35.52444 149.15487 40408 ft 442 kts 233°
2026-04-21 10:00 -35.56002 149.09315 40413 ft 442 kts 233°
2026-04-21 10:01 -35.59554 149.03143 40405 ft 442 kts 233°
2026-04-21 10:01 -35.63105 148.96961 40428 ft 442 kts 233°
2026-04-21 10:02 -35.68405 148.87714 40417 ft 442 kts 233°
2026-04-21 10:03 -35.71951 148.81515 40418 ft 443 kts 233°
2026-04-21 10:03 -35.75497 148.75303 40399 ft 443 kts 233°
2026-04-21 10:04 -35.79039 148.69087 40414 ft 443 kts 233°
2026-04-21 10:04 -35.82574 148.62872 40416 ft 443 kts 233°
2026-04-21 10:05 -35.86090 148.56679 40414 ft 443 kts 233°
2026-04-21 10:05 -35.89634 148.50435 40411 ft 444 kts 233°
2026-04-21 10:06 -35.93162 148.44174 40400 ft 444 kts 234°
2026-04-21 10:06 -35.96682 148.37906 40397 ft 444 kts 234°
2026-04-21 10:07 -36.00198 148.31638 40394 ft 444 kts 234°
2026-04-21 10:07 -36.03715 148.25362 40374 ft 444 kts 234°
2026-04-21 10:08 -36.07212 148.19112 40364 ft 444 kts 234°
2026-04-21 10:08 -36.10722 148.12827 40370 ft 444 kts 234°
2026-04-21 10:09 -36.14239 148.06539 40368 ft 444 kts 234°
2026-04-21 10:09 -36.17754 148.00249 40364 ft 444 kts 234°
2026-04-21 10:10 -36.21246 147.93988 40358 ft 444 kts 234°
2026-04-21 10:10 -36.24755 147.87686 40358 ft 444 kts 234°
2026-04-21 10:11 -36.28255 147.81390 40360 ft 444 kts 234°
2026-04-21 10:11 -36.31757 147.75079 40357 ft 444 kts 234°
2026-04-21 10:12 -36.35255 147.68763 40356 ft 444 kts 234°
2026-04-21 10:12 -36.38743 147.62435 40353 ft 444 kts 234°
2026-04-21 10:13 -36.42233 147.56086 40356 ft 445 kts 234°
2026-04-21 10:13 -36.45727 147.49723 40357 ft 445 kts 234°
2026-04-21 10:14 -36.49197 147.43394 40357 ft 445 kts 235°
2026-04-21 10:14 -36.52681 147.37029 40335 ft 445 kts 235°
2026-04-21 10:15 -36.56161 147.30660 40356 ft 446 kts 235°
2026-04-21 10:15 -36.59646 147.24271 40347 ft 446 kts 235°
2026-04-21 10:16 -36.63125 147.17877 40350 ft 446 kts 235°
2026-04-21 10:16 -36.66605 147.11470 40345 ft 446 kts 235°
2026-04-21 10:17 -36.70084 147.05055 40345 ft 446 kts 235°
2026-04-21 10:17 -36.73535 146.98691 39676 ft 436 kts 235°
2026-04-21 10:17 -36.75222 146.95566 39109 ft 434 kts 235°
2026-04-21 10:18 -36.76906 146.92442 38435 ft 434 kts 235°
2026-04-21 10:18 -36.78584 146.89328 37824 ft 432 kts 235°
2026-04-21 10:18 -36.80261 146.86213 37235 ft 431 kts 235°
2026-04-21 10:18 -36.81912 146.83146 36614 ft 430 kts 235°
2026-04-21 10:19 -36.83577 146.80050 36014 ft 429 kts 235°
2026-04-21 10:19 -36.85245 146.76947 35373 ft 431 kts 235°
2026-04-21 10:19 -36.86923 146.73823 34654 ft 434 kts 235°
2026-04-21 10:19 -36.88608 146.70681 33850 ft 437 kts 235°
2026-04-21 10:20 -36.90309 146.67507 33075 ft 445 kts 235°
2026-04-21 10:20 -36.92041 146.64275 32259 ft 449 kts 235°
2026-04-21 10:20 -36.93779 146.61026 31417 ft 450 kts 235°
2026-04-21 10:20 -36.95515 146.57777 30803 ft 446 kts 235°
2026-04-21 10:21 -36.97225 146.54571 30240 ft 441 kts 235°
2026-04-21 10:21 -36.98920 146.51391 29640 ft 436 kts 235°
2026-04-21 10:21 -37.00587 146.48260 29070 ft 430 kts 235°
2026-04-21 10:21 -37.02218 146.45196 28525 ft 428 kts 235°
2026-04-21 10:22 -37.03867 146.42096 27970 ft 426 kts 235°
2026-04-21 10:22 -37.05507 146.39011 27426 ft 424 kts 235°
2026-04-21 10:22 -37.07169 146.35885 26922 ft 435 kts 235°
2026-04-21 10:22 -37.08838 146.32747 26321 ft 431 kts 235°
2026-04-21 10:23 -37.10492 146.29632 25741 ft 426 kts 235°
2026-04-21 10:23 -37.12116 146.26560 25178 ft 421 kts 235°
2026-04-21 10:23 -37.13725 146.23512 24642 ft 417 kts 235°
2026-04-21 10:23 -37.15318 146.20491 24079 ft 413 kts 235°
2026-04-21 10:24 -37.16896 146.17499 23458 ft 410 kts 235°
2026-04-21 10:24 -37.18457 146.14538 22896 ft 405 kts 235°
2026-04-21 10:24 -37.20001 146.11609 22318 ft 400 kts 235°
2026-04-21 10:24 -37.21526 146.08711 21768 ft 395 kts 235°
2026-04-21 10:25 -37.23036 146.05841 21220 ft 393 kts 235°
2026-04-21 10:25 -37.24538 146.02984 20661 ft 391 kts 235°
2026-04-21 10:25 -37.26033 146.00141 20111 ft 389 kts 235°
2026-04-21 10:25 -37.27515 145.97315 19544 ft 386 kts 235°
2026-04-21 10:26 -37.28989 145.94505 18977 ft 383 kts 235°
2026-04-21 10:26 -37.30446 145.91724 18404 ft 380 kts 235°
2026-04-21 10:26 -37.31899 145.88963 17806 ft 377 kts 235°
2026-04-21 10:26 -37.33318 145.86260 17248 ft 373 kts 235°
2026-04-21 10:27 -37.34743 145.83544 16699 ft 370 kts 235°
2026-04-21 10:27 -37.36156 145.80847 16149 ft 368 kts 235°
2026-04-21 10:27 -37.37557 145.78171 15597 ft 366 kts 235°
2026-04-21 10:27 -37.38951 145.75506 15043 ft 364 kts 235°
2026-04-21 10:28 -37.39891 145.73710 14681 ft 362 kts 235°
2026-04-21 10:28 -37.41273 145.71069 14133 ft 360 kts 235°
2026-04-21 10:28 -37.42624 145.68483 13562 ft 357 kts 235°
2026-04-21 10:28 -37.43981 145.65886 13001 ft 354 kts 235°
2026-04-21 10:29 -37.45328 145.63305 12474 ft 351 kts 235°
2026-04-21 10:29 -37.46730 145.60810 11916 ft 347 kts 232°
2026-04-21 10:29 -37.48168 145.58382 11397 ft 344 kts 232°
2026-04-21 10:29 -37.49575 145.56003 11133 ft 325 kts 232°
2026-04-21 10:30 -37.50857 145.53816 11003 ft 296 kts 232°
2026-04-21 10:30 -37.52044 145.51785 10874 ft 282 kts 233°
2026-04-21 10:30 -37.53171 145.49852 10755 ft 273 kts 233°
2026-04-21 10:30 -37.54284 145.47940 10535 ft 268 kts 233°
2026-04-21 10:31 -37.55380 145.46054 10328 ft 266 kts 233°
2026-04-21 10:31 -37.56478 145.44178 10139 ft 266 kts 233°
2026-04-21 10:31 -37.57572 145.42289 9832 ft 270 kts 233°
2026-04-21 10:31 -37.58708 145.40322 9748 ft 282 kts 233°
2026-04-21 10:32 -37.59851 145.38343 9386 ft 275 kts 233°
2026-04-21 10:32 -37.60976 145.36393 8947 ft 278 kts 233°
2026-04-21 10:32 -37.62124 145.34408 8620 ft 282 kts 233°
2026-04-21 10:32 -37.63273 145.32417 8315 ft 280 kts 233°
2026-04-21 10:33 -37.64418 145.30433 8010 ft 279 kts 233°
2026-04-21 10:33 -37.65559 145.28454 7700 ft 278 kts 234°
2026-04-21 10:33 -37.66697 145.26480 7404 ft 278 kts 234°
2026-04-21 10:33 -37.67817 145.24538 7100 ft 275 kts 234°
2026-04-21 10:34 -37.68940 145.22587 6802 ft 275 kts 234°
2026-04-21 10:34 -37.70066 145.20633 6492 ft 275 kts 234°
2026-04-21 10:34 -37.71194 145.18680 6184 ft 275 kts 234°
2026-04-21 10:34 -37.72288 145.16774 6018 ft 259 kts 234°
2026-04-21 10:35 -37.73330 145.14958 5885 ft 253 kts 235°
2026-04-21 10:35 -37.74363 145.13156 5679 ft 252 kts 234°
2026-04-21 10:35 -37.75391 145.11363 5431 ft 252 kts 235°
2026-04-21 10:35 -37.76419 145.09571 5184 ft 251 kts 235°
2026-04-21 10:36 -37.77447 145.07789 4928 ft 251 kts 234°
2026-04-21 10:36 -37.78468 145.06003 4678 ft 250 kts 235°
2026-04-21 10:36 -37.79485 145.04224 4433 ft 250 kts 235°
2026-04-21 10:36 -37.80500 145.02446 4182 ft 249 kts 235°
2026-04-21 10:37 -37.81358 145.00556 4020 ft 248 kts 251°
2026-04-21 10:37 -37.81823 144.98465 3989 ft 247 kts 259°
2026-04-21 10:37 -37.82186 144.96373 3927 ft 244 kts 259°
2026-04-21 10:37 -37.82544 144.94272 3525 ft 243 kts 259°
2026-04-21 10:38 -37.82848 144.92235 3288 ft 227 kts 263°
2026-04-21 10:38 -37.83066 144.90325 3076 ft 212 kts 264°
2026-04-21 10:38 -37.83043 144.88558 2969 ft 193 kts 292°
2026-04-21 10:38 -37.82229 144.87349 2990 ft 180 kts 327°
2026-04-21 10:39 -37.81124 144.86615 2927 ft 180 kts 336°
2026-04-21 10:39 -37.79925 144.86219 2675 ft 177 kts 354°
2026-04-21 10:39 -37.78720 144.86023 2411 ft 173 kts 350°
2026-04-21 10:39 -37.77549 144.85782 2158 ft 167 kts 351°
2026-04-21 10:40 -37.76441 144.85576 1941 ft 155 kts 352°
2026-04-21 10:40 -37.75413 144.85383 1734 ft 144 kts 351°
2026-04-21 10:40 -37.74467 144.85204 1527 ft 133 kts 351°
2026-04-21 10:40 -37.73581 144.85042 1327 ft 124 kts 352°
2026-04-21 10:41 -37.72742 144.84884 1119 ft 120 kts 352°
2026-04-21 10:41 -37.71915 144.84721 985 ft 122 kts 351°
2026-04-21 10:41 -37.71077 144.84564 837 ft 122 kts 354°
2026-04-21 10:41 -37.70239 144.84408 678 ft 121 kts 354°
2026-04-21 10:42 -37.69404 144.84252 541 ft 121 kts 352°
2026-04-21 10:42 -37.68579 144.84101 393 ft 119 kts 351°
2026-04-21 10:42 -37.67789 144.83949 367 ft 104 kts 352°
2026-04-21 10:42 -37.67271 144.83855 383 ft 45 kts 352°
2026-04-21 10:43 -37.67010 144.83839 392 ft 34 kts
2026-04-21 10:43 -37.66878 144.83893 394 ft 11 kts 22°
2026-04-21 10:43 -37.66812 144.83927 394 ft 9 kts 21°
2026-04-21 10:43 -37.66750 144.83970 396 ft 11 kts 43°
2026-04-21 10:44 -37.66719 144.84059 397 ft 7 kts 81°
2026-04-21 10:44 -37.66736 144.84135 397 ft 10 kts 120°
2026-04-21 10:44 -37.66787 144.84188 395 ft 12 kts 165°
2026-04-21 10:44 -37.66876 144.84210 394 ft 10 kts 171°
2026-04-21 10:45 -37.66909 144.84255 392 ft 7 kts 85°
2026-04-21 10:45 -37.66902 144.84314 391 ft 5 kts 83°
2026-04-21 10:45 -37.66899 144.84339 392 ft 0 kts 82°
2026-04-21 10:45 -37.66899 144.84341 392 ft 0 kts 82°